"Pseudo-MPEC" for P216bgz

Created 2020 Sep 16 22:07:57 UT using Find_Orb

Click here for an explanation of pseudo-MPECs

 
 Astrometry: 
     P216bgz  C2020 09 153LWFHvnBT+:Zot:25I$@YwH4o6:KTX(4YG]Astrometry/oYc!sxF52
     P216bgz  C2020 09 15pm8(]aaW=@.@/#VI(d\1yo26$'oB\h@,5XiLtP)kJ813og7xRsc+F52
     P216bgz  C2020 09 15BuAFV6B9XbEmuhto#`CoLV?9mqE@ZPb/qce-+XeH$3CF-ledRb4XF52
     P216bgz  C2020 09 15r-r@$q:8HWGs@2'%EFMI3JIt4_IPM'IZSi^K]PM:wFZc':.NA1;lF52
     P216bgz 1C2020 09 15[6bIOem#\FFtK)JxD!EXdLrMTn^J:?`C5hC75M[F!aOK_M^,jeX=246
     P216bgz 1C2020 09 15sLVCfO)Crr1o/Fo6[o7vy\LBtXg_k^Y=:*D`MX8fB8[XM+pJ*2`V246
     P216bgz 1C2020 09 15/Zivredacted;@ZZSwO/[sobiNTUplkNtvxxe^6tr%Jclickl_*E246
     P216bgz 1C2020 09 1573UL,JivRC+jvQr)RniBrHl?bQdyds%Kxn!Pl,S\]^/gpb6p+2BS246
     P216bgz 1C2020 09 15%a;VntytEwBF(4-[Jjs$y:t;*DF=AB\oRbd8Lm4Lu#30'#],WxZr246
     P216bgz 1C2020 09 15(Y?EsA\hMy,ToxZb3`8jtqw`WT^l'@KF@Ks;a;i:HwcWL3qWk@OC246
     P216bgz KC2020 09 15.91270923 43 08.70 +29 12 56.8    ~9FMM 20.0 GVNEOCPI93
     P216bgz 1C2020 09 15`QRX9#XY(QtDm=8;:;KN)CF:hfC1G*c?6A2nkvQ@tx]3mR5c#=F=246
     P216bgz KC2020 09 15.91756223 43 09.83 +29 12 32.9    ~9FMM 19.9 GVNEOCPI93
     P216bgz KC2020 09 15.92254423 43 10.95 +29 12 08.7    ~9FMM 19.7 GVNEOCPI93
     P216bgz KC2020 09 15`i]*^h=$$_6r9\IDwC906Eyy#pE#3`Fqj!U23jW$=p:@;phere=8L01
     P216bgz KC2020 09 15/(NU'(XR'5eg\61]FwUYh37+)QKxGh61J?@RGx^NgIp#:[``YsGOL01
     P216bgz KC2020 09 15eR2W1yGOJfoVgG:p4=f8WGRqHE'Q03djODDPsHqB$^ir.X5NJGPrL01
     P216bgz KC2020 09 150%=8V'Kt.p#R:T%H@=l8LJ't(PP!a/rSf$:.N`BLf^QiXH[forptL01
     P216bgz KC2020 09 15_ROYZYc5ts.M9.,-Z%V#+w;6ft_!DY`vbs1B\F/Tjv0X0iiguf)1L01
     P216bgz KC2020 09 16R#pS!*mxlfc4HcQ2ru44KxG5h6#c`N.=E;ObpANY0Pw;bo6Q);O*A44
     P216bgz KC2020 09 16P=@-Zvm/^0.SO];EXiYhtVexplanation]\KM3.h=9s43odNX8f0A44
     P216bgz KC2020 09 16g#Kg5oXiV;%[imC106*DJemhm%j+ksH:^O:rJWw+jN2Teyi[F1NLA44
     P216bgz KC2020 09 16!ZqV-@\G$e;t]eQ4pRYxd3=Zf`p3qD_MXV)eP?fT*'NAlZUfho*VH21
     P216bgz KC2020 09 162dBM4/DYHq7YTW/sCWKFx=.4FP)P,ooOB)8AbalT@G1OtTGRYn*wH21
     P216bgz KC2020 09 16tleAwnK)c@2`JK'ffs@,t+5o:]!sQ_J%,5))LfGlS-$h)D;#P6/?H21
     P216bgz KC2020 09 16_I:vSSG3_63Bt_cAR(HtpQ1UH!g:gjTcw.d0G!DDu]-p5IR^Ciag711
     P216bgz KC2020 09 16DcibP))@8G1(Gfk;dxey!=7D?'_-%HPBy3%s%Lk%8t'$rtK_rW/K711
     P216bgz KC2020 09 16Pjd]Jggl@UK9Zx_`63gn39h,($E_3JiXh'(UnNOIyC*Q(Dg;e6($711
     P216bgz KC2020 09 16.84780623 46 56.44 +27 58 40.1    ~9GM7 19.5 GVNEOCPC95
     P216bgz KC2020 09 16.86498423 46 59.86 +27 57 25.5    ~9GM7 19.3 GVNEOCPC95
     P216bgz KC2020 09 16.88213423 47 03.29 +27 56 10.7    ~9GM7 20.9 GVNEOCPC95

Station data:
(246) Klet Observatory-KLENOT  (N48.863293 E14.288100)  Czech Republic.
   1.06-m KLENOT telescope.
(711) McDonald Observatory, Fort Davis  (N30.671481 W104.021500)  US/Texas.
   0.76-m f/3.0 reflector.
(A44) Altschwendter Kleine Planeten  (N48.332991 E13.697200)  Austria.
(C95) SATINO Remote Observatory, Haute Provence  (N43.932042 E5.712390)
   France.  Observer J. Jahn. 0.60-m f/3.2 Newtonian reflector + CCD.
(F52) Pan-STARRS 2, Haleakala  (N20.707384 W156.255910)  US/Hawaii. 1.8-m
   Ritchey-Chrétien + CCD.
(H21) Astronomical Research Observatory, Westfield  (N39.483057 W87.968270)
   US/Illinois. 0.76-m f/3.0 astrograph + CCD.
(I93) St Pardon de Conques  (N44.558710 W0.203000)  France.  Observer F.
   Losse. 0.40-m f/3.7 reflector + CCD.
(L01) Višnjan Observatory, Tičan  (N45.290900 E13.749300)  Croatia.
   Observers K. Korlević, E. Pettarin. Measurer E. Pettarin. 1.0-m f/2.9
   reflector + CCD.

Orbital elements:  P216bgz
   Perihelion 2020 Aug 3.326861 +/- 0.0697 TT =  7:50:40 (JD 2459064.826861)
Epoch 2020 Sep 16.0 TT = JDT 2459108.5   Earth MOID: 0.0092   Ma: 0.0572
M  17.71090871 +/- 0.39             (J2000 ecliptic)          AutoNEOCP
n   0.40553322 +/- 0.00842          Peri.   25.03538 +/- 0.8
a   1.80766697 +/- 0.025            Node   277.11612 +/- 0.8
e   0.4790367 +/- 0.00771           Incl.    2.13295 +/- 0.026
P   2.43/887.70d           H 24.2   G  0.15   U  9.5  
q 0.94172799 +/- 0.000956    Q 2.67360596 +/- 0.0507
From 31 observations 2020 Sept. 15-16 (36.9 hr); mean residual 1".86
Residuals in arcseconds: 
200915 F52  .98-  .17+    200915 246  .71+  .50-    200916 H21  .37+  .66-    
200915 F52  .82-  .03+    200915 I93  .02+  .37-    200916 H21  .17+  .82-    
200915 F52  .82-  .01+    200915 I93  .17-  .30-    200916 H21  .05-  .68-    
200915 F52  .58-  .21-    200915 L01  .40+  .50-    200916 711  1.0+  .94-    
200915 246  .23+  .18-    200915 L01  .32+  .50-    200916 711  6.7- 12.0+    
200915 246  .38-  .45-    200915 L01  .33+  .32-    200916 711  1.3+  1.0-    
200915 246  1.0+  .07-    200915 L01  .61+  .23-    200916 C95  .00   1.5-    
200915 246  .17+  .09-    200915 L01  .64+  .38-    200916 C95  .59-  .94-    
200915 246  .52+  .31-    200916 A44  1.3+  .61-    200916 C95  .28-  .56-    
200915 246  1.0+  .13-    200916 A44  1.3+  .44-    
200915 I93  .25-  .10-    200916 A44  1.6+  .55-    

Ephemerides (geocentric):
Date (UTC) HH   RA              Dec         delta   r     elong  mag " sig PA
---- -- -- --  -------------   -----------  ------ ------ -----  --- ---- ---
2020 09 16 22  23 47 07.725   +27 54 09.62  .08775 1.0819 149.7 20.4 .716 148
2020 09 16 23  23 47 17.013   +27 51 02.35  .08798 1.0821 149.8 20.4 .730 148
2020 09 17 00  23 47 26.244   +27 47 55.85  .08820 1.0823 149.9 20.4 .744 149
2020 09 17 01  23 47 35.420   +27 44 50.13  .08842 1.0826 149.9 20.4 .757 149
2020 09 17 02  23 47 44.540   +27 41 45.18  .08864 1.0828 150.0 20.4 .771 149
2020 09 17 03  23 47 53.606   +27 38 40.99  .08886 1.0830 150.1 20.4 .785 149
2020 09 17 04  23 48 02.618   +27 35 37.56  .08908 1.0833 150.1 20.4 .799 149
2020 09 17 05  23 48 11.576   +27 32 34.89  .08930 1.0835 150.2 20.4 .812 149
2020 09 17 06  23 48 20.480   +27 29 32.96  .08953 1.0837 150.3 20.4 .826 149
2020 09 17 07  23 48 29.332   +27 26 31.77  .08975 1.0840 150.3 20.4 .840 149
2020 09 17 08  23 48 38.131   +27 23 31.33  .08997 1.0842 150.4 20.4 .854 149
2020 09 17 09  23 48 46.878   +27 20 31.62  .09019 1.0844 150.5 20.4 .868 149
2020 09 17 10  23 48 55.574   +27 17 32.65  .09042 1.0847 150.5 20.4 .881 149
2020 09 17 11  23 49 04.218   +27 14 34.40  .09064 1.0849 150.6 20.4 .895 149
2020 09 17 12  23 49 12.812   +27 11 36.87  .09086 1.0851 150.7 20.4 .909 149
2020 09 17 13  23 49 21.355   +27 08 40.06  .09109 1.0854 150.7 20.4 .923 149
2020 09 17 14  23 49 29.849   +27 05 43.96  .09131 1.0856 150.8 20.4 .937 149
2020 09 17 15  23 49 38.293   +27 02 48.57  .09153 1.0858 150.9 20.4 .951 149
2020 09 17 16  23 49 46.687   +26 59 53.89  .09176 1.0861 150.9 20.4 .964 149
2020 09 17 17  23 49 55.034   +26 56 59.90  .09198 1.0863 151.0 20.4 .978 149
2020 09 17 18  23 50 03.332   +26 54 06.62  .09221 1.0865 151.0 20.4 0.99 149
2020 09 17 19  23 50 11.582   +26 51 14.02  .09243 1.0868 151.1 20.4 1.01 149
2020 09 17 20  23 50 19.785   +26 48 22.11  .09265 1.0870 151.2 20.4 1.02 149
2020 09 17 21  23 50 27.940   +26 45 30.89  .09288 1.0872 151.2 20.4 1.03 149
2020 09 17 22  23 50 36.049   +26 42 40.34  .09310 1.0875 151.3 20.4 1.05 149
2020 09 17 23  23 50 44.112   +26 39 50.47  .09333 1.0877 151.4 20.5 1.06 149
2020 09 18 00  23 50 52.128   +26 37 01.28  .09355 1.0880 151.4 20.5 1.07 149
2020 09 18 01  23 51 00.099   +26 34 12.74  .09378 1.0882 151.5 20.5 1.09 148
2020 09 18 02  23 51 08.025   +26 31 24.88  .09400 1.0884 151.6 20.5 1.10 148
2020 09 18 03  23 51 15.906   +26 28 37.67  .09423 1.0887 151.6 20.5 1.11 148
2020 09 18 04  23 51 23.742   +26 25 51.11  .09445 1.0889 151.7 20.5 1.13 148
2020 09 18 05  23 51 31.535   +26 23 05.21  .09468 1.0891 151.7 20.5 1.14 148
2020 09 18 06  23 51 39.283   +26 20 19.96  .09490 1.0894 151.8 20.5 1.16 148
2020 09 18 07  23 51 46.988   +26 17 35.34  .09513 1.0896 151.9 20.5 1.17 148
2020 09 18 08  23 51 54.650   +26 14 51.37  .09536 1.0898 151.9 20.5 1.18 148
2020 09 18 09  23 52 02.270   +26 12 08.04  .09558 1.0901 152.0 20.5 1.20 147
2020 09 18 10  23 52 09.847   +26 09 25.33  .09581 1.0903 152.1 20.5 1.21 147
2020 09 18 11  23 52 17.381   +26 06 43.26  .09604 1.0906 152.1 20.5 1.22 147
2020 09 18 12  23 52 24.874   +26 04 01.81  .09626 1.0908 152.2 20.5 1.24 147
2020 09 18 13  23 52 32.326   +26 01 20.98  .09649 1.0910 152.2 20.5 1.25 147
2020 09 18 14  23 52 39.737   +25 58 40.77  .09672 1.0913 152.3 20.5 1.26 147
2020 09 18 15  23 52 47.106   +25 56 01.17  .09694 1.0915 152.4 20.5 1.27 147
2020 09 18 16  23 52 54.436   +25 53 22.18  .09717 1.0917 152.4 20.5 1.29 147
2020 09 18 17  23 53 01.725   +25 50 43.80  .09740 1.0920 152.5 20.5 1.30 146
2020 09 18 18  23 53 08.975   +25 48 06.02  .09763 1.0922 152.5 20.5 1.31 146
2020 09 18 19  23 53 16.184   +25 45 28.84  .09785 1.0925 152.6 20.5 1.33 146
2020 09 18 20  23 53 23.355   +25 42 52.26  .09808 1.0927 152.7 20.5 1.34 146
2020 09 18 21  23 53 30.487   +25 40 16.27  .09831 1.0929 152.7 20.5 1.35 146